August 27, 2015
Temp
 
78.3 °F
 
Dew Pt.
 
57.0 °F
 
Humidity
 
48%
 
Pressure
 
1012.2 hPa 
  rising rapidly
Wind
 
0.0 mph 
    WNW
Rain
 
0.00 in 
  0.00 in/hr
UV index
 
---  
 
Solar rad.
 
100 W/m²
 
Tonight

Tonight: Mostly clear, with a low around 70. West southwest wind 5 to 10 mph becoming north in the evening. Winds could gust as high as 15 mph.
Mostly Clear
Friday

Friday: Sunny and hot, with a high near 104. Light and variable wind becoming southwest 5 to 10 mph in the afternoon.
Hot
Lo 70 °F Hi 104 °F
Statistics - 8/27/2015
Max Temp 101.9 °F  2:45 pm
Min Temp 69.0 °F  6:10 am
Max Dew Pt 63.8 °F  8:35 am
Min Dew Pt 53.7 °F  5:45 pm
Max Pressure 1014.6 hPa  10:20 am
Min Pressure 1010.1 hPa  7:00 pm
Max Wind 11 mph  3:35 pm
Max UV —   —
Max Solar —   —
Max Rainfall Rate —   —
Total Precipitation —   
Current Temp 78.3 °F  10:20 pm
Temp 24hr ago 75.5 °F  10:20 pm
Difference +2.8 °F  
Temp Rate -0.0 °F/hr  
Pressure Rate -0.1 hPa/hr  
time temp dew pt pressure uv solar wind wind speed rainfall rate
00:00 73.1 °F 61.1 °F 1014.1 hPa  NE 1 mph   
00:05 72.8 °F 59.9 °F 1014.1 hPa  NE 1 mph   
00:10 73.0 °F 60.1 °F 1014.0 hPa  NE 1 mph   
00:15 73.3 °F 59.9 °F 1014.0 hPa  NE 1 mph   
00:20 73.6 °F 59.8 °F 1013.9 hPa  NE 1 mph   
00:25 73.3 °F 61.2 °F 1013.9 hPa  NE 1 mph   
00:30 73.0 °F 59.2 °F 1014.0 hPa  Calm    
00:35 73.0 °F 59.6 °F 1013.9 hPa  Calm    
00:40 72.6 °F 59.7 °F 1013.9 hPa  Calm    
00:45 72.7 °F 59.8 °F 1013.9 hPa  Calm    
00:50 72.7 °F 60.2 °F 1013.9 hPa  Calm    
00:55 72.8 °F 59.9 °F 1014.0 hPa  Calm    
01:00 72.9 °F 59.6 °F 1013.9 hPa  NE 1 mph   
01:05 72.9 °F 59.6 °F 1013.8 hPa  NE 1 mph   
01:10 72.7 °F 60.7 °F 1013.9 hPa  Calm    
01:15 72.3 °F 59.9 °F 1013.9 hPa  Calm    
01:20 72.1 °F 59.2 °F 1013.8 hPa  Calm    
01:25 71.9 °F 59.9 °F 1013.7 hPa  Calm    
01:30 71.6 °F 60.0 °F 1013.6 hPa  Calm    
01:35 71.9 °F 59.5 °F 1013.7 hPa  Calm    
01:40 71.7 °F 59.7 °F 1013.7 hPa  ENE 2 mph   
01:45 71.9 °F 59.5 °F 1013.7 hPa  Calm    
01:50 72.1 °F 59.2 °F 1013.6 hPa  Calm    
01:55 72.0 °F 59.1 °F 1013.6 hPa  Calm    
02:00 72.1 °F 59.7 °F 1013.6 hPa  Calm    
02:05 71.7 °F 58.9 °F 1013.6 hPa  Calm    
02:10 72.0 °F 58.7 °F 1013.5 hPa  Calm    
02:15 71.9 °F 58.6 °F 1013.5 hPa  Calm    
02:20 71.6 °F 58.8 °F 1013.5 hPa  Calm    
02:25 71.3 °F 59.3 °F 1013.4 hPa  Calm    
02:30 71.3 °F 58.5 °F 1013.4 hPa  Calm    
02:35 71.1 °F 58.7 °F 1013.3 hPa  Calm    
02:40 71.0 °F 58.2 °F 1013.3 hPa  Calm    
02:45 70.7 °F 59.2 °F 1013.3 hPa  Calm    
02:50 71.2 °F 58.4 °F 1013.3 hPa  Calm    
02:55 70.9 °F 59.0 °F 1013.4 hPa  Calm    
03:00 71.2 °F 58.4 °F 1013.3 hPa  Calm    
03:05 71.3 °F 58.5 °F 1013.4 hPa  Calm    
03:10 71.1 °F 59.2 °F 1013.3 hPa  Calm    
03:15 70.8 °F 58.4 °F 1013.3 hPa  Calm    
03:20 70.8 °F 59.3 °F 1013.4 hPa  Calm    
03:25 70.4 °F 58.1 °F 1013.3 hPa  E 1 mph   
03:30 70.4 °F 58.5 °F 1013.3 hPa  E 2 mph   
03:35 70.5 °F 58.6 °F 1013.3 hPa  Calm    
03:40 70.6 °F 57.8 °F 1013.2 hPa  Calm    
03:45 70.4 °F 58.5 °F 1013.2 hPa  E 1 mph   
03:50 70.0 °F 58.5 °F 1013.2 hPa  Calm    
03:55 70.3 °F 58.4 °F 1013.3 hPa  Calm    
04:00 70.2 °F 58.3 °F 1013.4 hPa  Calm    
04:05 69.9 °F 58.0 °F 1013.4 hPa  Calm    
04:10 69.9 °F 58.0 °F 1013.4 hPa  Calm    
04:15 70.1 °F 57.8 °F 1013.4 hPa  Calm    
04:20 70.0 °F 57.7 °F 1013.5 hPa  Calm    
04:25 70.0 °F 58.5 °F 1013.5 hPa  Calm    
04:30 69.8 °F 57.9 °F 1013.4 hPa  Calm    
04:35 69.9 °F 58.0 °F 1013.3 hPa  Calm    
04:40 69.5 °F 57.6 °F 1013.4 hPa  Calm    
04:45 69.6 °F 57.7 °F 1013.3 hPa  Calm    
04:50 69.5 °F 57.6 °F 1013.4 hPa  Calm    
04:55 69.4 °F 58.0 °F 1013.4 hPa  Calm    
05:00 69.3 °F 57.9 °F 1013.5 hPa  Calm    
05:05 69.3 °F 57.4 °F 1013.5 hPa  Calm    
05:10 69.5 °F 58.1 °F 1013.5 hPa  Calm    
05:15 69.4 °F 58.0 °F 1013.4 hPa  Calm    
05:20 69.6 °F 57.3 °F 1013.4 hPa  ESE 2 mph   
05:25 69.9 °F 57.6 °F 1013.4 hPa  E 5 mph   
05:30 69.7 °F 58.2 °F 1013.5 hPa  E 5 mph   
05:35 69.5 °F 57.6 °F 1013.5 hPa  E 2 mph   
05:40 69.4 °F 58.0 °F 1013.6 hPa  E 3 mph   
05:45 69.3 °F 57.9 °F 1013.6 hPa  ENE 2 mph   
05:50 69.4 °F 57.5 °F 1013.6 hPa  Calm    
05:55 69.6 °F 58.1 °F 1013.6 hPa  Calm    
06:00 69.1 °F 58.5 °F 1013.6 hPa  Calm    
06:05 69.0 °F 57.6 °F 1013.5 hPa  Calm    
06:10 69.2 °F 57.3 °F 1013.5 hPa  Calm    
06:15 69.5 °F 56.8 °F 1013.5 hPa  Calm    
06:20 69.4 °F 57.1 °F 1013.6 hPa  Calm    
06:25 69.3 °F 57.4 °F 1013.6 hPa  Calm    
06:30 69.5 °F 57.2 °F 1013.5 hPa  Calm    
06:35 69.5 °F 58.1 °F 1013.6 hPa  Calm    
06:40 69.8 °F 58.3 °F 1013.6 hPa  Calm    
06:45 70.1 °F 57.8 °F 1013.6 hPa  Calm    
06:50 70.3 °F 58.4 °F 1013.6 hPa  Calm    
06:55 70.4 °F 57.6 °F 1013.6 hPa  Calm    
07:00 70.7 °F 57.5 °F 1013.7 hPa  Calm    
07:05 70.7 °F 58.3 °F 1013.7 hPa  Calm    
07:10 70.9 °F 58.1 °F 1013.7 hPa  Calm    
07:15 71.1 °F 58.7 °F 1013.8 hPa  Calm    
07:20 71.3 °F 58.5 °F 1013.8 hPa  Calm    
07:25 72.6 °F 58.4 °F 1013.9 hPa  Calm    
07:30 73.0 °F 57.8 °F 1014.0 hPa  Calm    
07:35 73.2 °F 58.9 °F 1014.0 hPa  Calm    
07:40 73.8 °F 59.5 °F 1014.0 hPa  Calm    
07:45 74.4 °F 60.1 °F 1014.1 hPa  Calm    
07:50 74.9 °F 61.4 °F 1014.1 hPa  Calm    
07:55 75.2 °F 62.2 °F 1014.1 hPa  ESE 2 mph   
08:00 75.4 °F 62.4 °F 1014.3 hPa  ESE 1 mph   
08:05 75.6 °F 62.5 °F 1014.3 hPa  ESE 2 mph   
08:10 76.2 °F 63.6 °F 1014.4 hPa  ESE 2 mph   
08:15 76.6 °F 63.0 °F 1014.4 hPa  ESE 2 mph   
08:20 76.8 °F 63.7 °F 1014.2 hPa  SE 2 mph   
08:25 77.2 °F 63.2 °F 1014.2 hPa  SE 1 mph   
08:30 77.8 °F 63.7 °F 1014.2 hPa  ESE 1 mph   
08:35 78.4 °F 63.8 °F 1014.3 hPa  ESE 2 mph   
08:40 78.9 °F 63.8 °F 1014.3 hPa  E 3 mph   
08:45 79.6 °F 62.5 °F 1014.3 hPa  ESE 3 mph   
08:50 80.3 °F 63.7 °F 1014.3 hPa  ESE 2 mph   
08:55 80.4 °F 63.2 °F 1014.3 hPa  ESE 2 mph   
09:00 81.5 °F 62.2 °F 1014.4 hPa  WSW 3 mph   
09:05 81.9 °F 62.0 °F 1014.5 hPa  SSE 2 mph   
09:10 82.1 °F 61.6 °F 1014.4 hPa  SSE 2 mph   
09:15 82.6 °F 60.9 °F 1014.4 hPa  SSE 3 mph   
09:20 83.1 °F 61.9 °F 1014.5 hPa  SSW 3 mph   
09:25 83.4 °F 59.8 °F 1014.5 hPa  SW 3 mph   
09:30 83.9 °F 59.6 °F 1014.5 hPa  SSW 2 mph   
09:35 84.1 °F 59.8 °F 1014.5 hPa  ESE 2 mph   
09:40 84.6 °F 60.3 °F 1014.5 hPa  SE 2 mph   
09:45 85.2 °F 59.5 °F 1014.5 hPa  SW 5 mph   
09:50 86.0 °F 60.2 °F 1014.5 hPa  ESE 3 mph   
09:55 86.3 °F 60.5 °F 1014.4 hPa  SSW 2 mph   
10:00 86.2 °F 59.7 °F 1014.4 hPa  SW 4 mph   
10:05 87.1 °F 60.5 °F 1014.4 hPa  SW 3 mph   
10:10 87.3 °F 60.7 °F 1014.5 hPa  SW 4 mph   
10:15 88.0 °F 60.6 °F 1014.6 hPa  SW 3 mph   
10:20 88.6 °F 61.1 °F 1014.6 hPa  WSW 5 mph   
10:25 88.9 °F 60.0 °F 1014.5 hPa  SW 6 mph   
10:30 89.9 °F 61.6 °F 1014.5 hPa  SW 5 mph   
10:35 89.8 °F 60.8 °F 1014.5 hPa  SW 5 mph   
10:40 89.9 °F 60.8 °F 1014.4 hPa  WSW 6 mph   
10:45 90.5 °F 61.4 °F 1014.5 hPa  WSW 6 mph   
10:50 90.7 °F 61.6 °F 1014.5 hPa  WSW 6 mph   
10:55 90.2 °F 61.1 °F 1014.5 hPa  W 7 mph   
11:00 91.3 °F 61.3 °F 1014.5 hPa  SW 7 mph   
11:05 91.3 °F 59.8 °F 1014.4 hPa  WSW 6 mph   
11:10 92.0 °F 60.4 °F 1014.4 hPa  SW 6 mph   
11:15 92.3 °F 60.6 °F 1014.4 hPa  WSW 6 mph   
11:20 93.1 °F 59.7 °F 1014.3 hPa  WSW 7 mph   
11:25 92.5 °F 59.2 °F 1014.3 hPa  WSW 6 mph   
11:30 93.6 °F 59.2 °F 1014.4 hPa  WSW 8 mph   
11:35 93.7 °F 60.2 °F 1014.3 hPa  W 7 mph   
11:40 93.7 °F 58.4 °F 1014.2 hPa  WSW 8 mph   
11:45 94.2 °F 59.8 °F 1014.2 hPa  WSW 6 mph   
11:50 94.4 °F 59.9 °F 1014.2 hPa  WSW 4 mph   
11:55 94.5 °F 60.9 °F 1014.2 hPa  SW 10 mph   
12:00 94.8 °F 59.4 °F 1014.1 hPa  WSW 7 mph   
12:05 94.9 °F 60.4 °F 1014.1 hPa  S 8 mph   
12:10 95.2 °F 61.5 °F 1014.0 hPa  WSW 8 mph   
12:15 95.3 °F 59.8 °F 1014.0 hPa  S 9 mph   
12:20 95.5 °F 59.1 °F 1013.9 hPa  WSW 8 mph   
12:25 95.1 °F 59.7 °F 1013.8 hPa  SSW 8 mph   
12:30 95.6 °F 60.1 °F 1013.7 hPa  WSW 8 mph   
12:35 96.4 °F 59.8 °F 1013.7 hPa  SW 10 mph   
12:40 96.2 °F 60.6 °F 1013.5 hPa  WSW 8 mph   
12:45 97.2 °F 60.5 °F 1013.4 hPa  SW 8 mph   
12:50 97.1 °F 60.4 °F 1013.3 hPa  SW 10 mph   
12:55 97.4 °F 59.8 °F 1013.4 hPa  SSW 9 mph   
13:00 97.3 °F 60.6 °F 1013.3 hPa  SW 8 mph   
13:05 97.3 °F 60.6 °F 1013.3 hPa  WSW 8 mph   
13:10 97.2 °F 59.6 °F 1013.2 hPa  SW 8 mph   
13:15 98.0 °F 61.2 °F 1013.1 hPa  SSW 9 mph   
13:20 98.2 °F 59.4 °F 1013.0 hPa  SW 9 mph   
13:25 98.6 °F 60.8 °F 1012.9 hPa  SW 6 mph   
13:30 98.1 °F 60.3 °F 1012.8 hPa  SW 7 mph   
13:35 98.5 °F 60.7 °F 1012.6 hPa  SW 8 mph   
13:40 99.2 °F 60.3 °F 1012.6 hPa  SW 10 mph   
13:45 99.5 °F 60.6 °F 1012.7 hPa  SW 8 mph   
13:50 98.7 °F 61.8 °F 1012.5 hPa  WSW 9 mph   
13:55 98.8 °F 60.0 °F 1012.5 hPa  SW 10 mph   
14:00 98.8 °F 60.0 °F 1012.3 hPa  SSW 8 mph   
14:05 99.3 °F 60.4 °F 1012.2 hPa  W 8 mph   
14:10 99.9 °F 59.9 °F 1012.1 hPa  S 8 mph   
14:15 99.6 °F 59.6 °F 1012.0 hPa  SSW 7 mph   
14:20 100.0 °F 60.0 °F 1011.9 hPa  W 11 mph   
14:25 100.2 °F 60.1 °F 1011.9 hPa  S 6 mph   
14:30 101.1 °F 59.8 °F 1011.9 hPa  SSW 10 mph   
14:35 101.0 °F 59.7 °F 1011.8 hPa  SW 5 mph   
14:40 101.2 °F 59.9 °F 1011.8 hPa  SW 8 mph   
14:45 101.8 °F 60.4 °F 1011.7 hPa  SW 7 mph   
14:50 101.1 °F 60.9 °F 1011.6 hPa  SSE 9 mph   
14:55 100.4 °F 60.3 °F 1011.6 hPa  S 9 mph   
15:00 100.7 °F 60.5 °F 1011.5 hPa  SW 10 mph   
15:05 101.3 °F 62.1 °F 1011.4 hPa  WSW 3 mph   
15:10 101.6 °F 61.3 °F 1011.4 hPa  S 7 mph   
15:15 101.6 °F 61.3 °F 1011.2 hPa  W 8 mph   
15:20 100.8 °F 61.7 °F 1011.2 hPa  S 8 mph   
15:25 100.8 °F 61.7 °F 1011.1 hPa  W 8 mph   
15:30 100.4 °F 61.3 °F 1011.0 hPa  WSW 8 mph   
15:35 100.6 °F 60.5 °F 1010.9 hPa  SW 11 mph   
15:40 100.8 °F 60.6 °F 1010.8 hPa  SW 9 mph   
15:45 100.0 °F 60.0 °F 1010.8 hPa  SW 8 mph   
15:50 100.4 °F 60.3 °F 1010.8 hPa  S 9 mph   
15:55 100.8 °F 59.6 °F 1010.7 hPa  SW 7 mph   
16:00 100.2 °F 59.1 °F 1010.6 hPa  S 8 mph   
16:05 99.8 °F 58.7 °F 1010.6 hPa  SW 6 mph   
16:10 100.0 °F 58.9 °F 1010.5 hPa  SSW 6 mph   
16:15 99.8 °F 58.7 °F 1010.5 hPa  SW 6 mph   
16:20 99.5 °F 57.4 °F 1010.5 hPa  SW 8 mph   
16:25 99.8 °F 57.6 °F 1010.5 hPa  SSW 6 mph   
16:30 99.6 °F 56.3 °F 1010.4 hPa  W 9 mph   
16:35 99.3 °F 57.2 °F 1010.4 hPa  NW 9 mph   
16:40 99.8 °F 56.5 °F 1010.4 hPa  WSW 6 mph   
16:45 98.9 °F 56.9 °F 1010.4 hPa  SW 8 mph   
16:50 98.9 °F 56.9 °F 1010.4 hPa  SW 3 mph   
16:55 99.1 °F 57.0 °F 1010.4 hPa  SSW 8 mph   
17:00 98.5 °F 56.5 °F 1010.4 hPa  SSW 5 mph   
17:05 98.4 °F 56.5 °F 1010.4 hPa  SW 7 mph   
17:10 98.1 °F 56.2 °F 1010.4 hPa  SSW 7 mph   
17:15 97.9 °F 56.0 °F 1010.3 hPa  SW 5 mph   
17:20 97.7 °F 55.9 °F 1010.2 hPa  SSW 9 mph   
17:25 97.6 °F 54.7 °F 1010.2 hPa  SW 7 mph   
17:30 96.9 °F 54.1 °F 1010.2 hPa  SSW 7 mph   
17:35 96.7 °F 55.0 °F 1010.2 hPa  SW 4 mph   
17:40 96.6 °F 54.9 °F 1010.2 hPa  SW 8 mph   
17:45 96.4 °F 53.7 °F 1010.2 hPa  SW 9 mph   
17:50 95.8 °F 55.4 °F 1010.2 hPa  SW 8 mph   
17:55 95.4 °F 55.0 °F 1010.2 hPa  SSW 6 mph   
18:00 95.0 °F 54.7 °F 1010.2 hPa  SSW 7 mph   
18:05 95.4 °F 55.0 °F 1010.2 hPa  SW 4 mph   
18:10 94.6 °F 54.3 °F 1010.2 hPa  SW 8 mph   
18:15 94.3 °F 56.1 °F 1010.2 hPa  SW 7 mph   
18:20 93.9 °F 55.8 °F 1010.2 hPa  SW 6 mph   
18:25 93.4 °F 55.4 °F 1010.2 hPa  SW 4 mph   
18:30 92.7 °F 54.8 °F 1010.2 hPa  WSW 7 mph   
18:35 92.2 °F 55.3 °F 1010.2 hPa  SW 1 mph   
18:40 91.7 °F 54.9 °F 1010.2 hPa  WSW 7 mph   
18:45 91.5 °F 54.7 °F 1010.1 hPa  SW 6 mph   
18:50 91.2 °F 55.4 °F 1010.1 hPa  W 2 mph   
18:55 90.8 °F 55.0 °F 1010.1 hPa  W 1 mph   
19:00 90.4 °F 55.6 °F 1010.1 hPa  Calm    
19:05 90.0 °F 56.1 °F 1010.2 hPa  W 2 mph   
19:10 89.7 °F 56.7 °F 1010.2 hPa  Calm    
19:15 89.2 °F 56.3 °F 1010.3 hPa  W 1 mph   
19:20 88.8 °F 55.9 °F 1010.3 hPa  W 1 mph   
19:25 88.4 °F 56.4 °F 1010.5 hPa  SW 5 mph   
19:30 87.9 °F 56.8 °F 1010.5 hPa  SW 1 mph   
19:35 87.4 °F 56.4 °F 1010.6 hPa  SW 1 mph   
19:40 86.9 °F 55.9 °F 1010.7 hPa  Calm    
19:45 86.5 °F 55.6 °F 1010.7 hPa  Calm    
19:50 86.2 °F 56.1 °F 1010.8 hPa  Calm    
19:55 85.8 °F 56.5 °F 1010.9 hPa  Calm    
20:00 85.4 °F 56.1 °F 1011.0 hPa  Calm    
20:05 85.0 °F 57.2 °F 1011.0 hPa  Calm    
20:10 84.5 °F 56.8 °F 1011.1 hPa  Calm    
20:15 84.4 °F 56.7 °F 1011.3 hPa  Calm    
20:20 84.0 °F 56.3 °F 1011.4 hPa  Calm    
20:25 83.3 °F 56.4 °F 1011.4 hPa  Calm    
20:30 82.8 °F 56.7 °F 1011.4 hPa  Calm    
20:35 82.5 °F 56.4 °F 1011.5 hPa  Calm    
20:40 82.1 °F 56.7 °F 1011.5 hPa  Calm    
20:45 82.0 °F 56.6 °F 1011.6 hPa  Calm    
20:50 81.7 °F 57.0 °F 1011.6 hPa  Calm    
20:55 81.4 °F 56.7 °F 1011.7 hPa  W 1 mph   
21:00 81.2 °F 56.5 °F 1011.8 hPa  Calm    
21:05 81.0 °F 56.4 °F 1011.9 hPa  Calm    
21:10 80.8 °F 56.8 °F 1011.9 hPa  Calm    
21:15 80.7 °F 56.7 °F 1011.9 hPa  Calm    
21:20 80.5 °F 56.6 °F 1011.9 hPa  Calm    
21:25 80.0 °F 56.7 °F 1012.0 hPa  Calm    
21:30 79.7 °F 56.5 °F 1012.1 hPa  Calm    
21:35 79.4 °F 56.8 °F 1012.2 hPa  Calm    
21:40 79.1 °F 56.5 °F 1012.2 hPa  Calm    
21:45 78.8 °F 56.8 °F 1012.3 hPa  Calm    
21:50 78.7 °F 56.8 °F 1012.4 hPa  Calm    
21:55 78.5 °F 56.6 °F 1012.4 hPa  Calm    
22:00 78.4 °F 57.1 °F 1012.4 hPa  Calm    
22:05 78.6 °F 56.7 °F 1012.4 hPa  Calm    
22:10 78.6 °F 56.7 °F 1012.4 hPa  Calm    
22:15 78.6 °F 56.7 °F 1012.4 hPa  Calm    
22:20 78.3 °F 56.4 °F 1012.4 hPa  Calm